Regional Weather Roundup
Issued by NWS

Home | Current Version | Previous Version | Text Only | Print | Product List | Glossary On
Versions: 1 2 3 4 5 6 7 8 9 10 11 12 13 14 15 16 17 18 19 20 21 22 23 24 25 26 27 28 29 30 31 32 33 34 35 36 37 38 39 40 41 42 43 44 45 46 47 48 49 50
000
ASUS43 KMKX 260611
RWRWI

WISCONSIN REGIONAL WEATHER ROUNDUP
NATIONAL WEATHER SERVICE MILWAUKEE/SULLIVAN WI
100 AM CDT FRI AUG 26 2016

NOTE: "FAIR" INDICATES FEW OR NO CLOUDS BELOW 12,000 FEET WITH NO
SIGNIFICANT WEATHER AND/OR OBSTRUCTIONS TO VISIBILITY.

WIZ001-002-006>008-014>016-023>028-260700-
NORTHWEST WISCONSIN

CITY           SKY/WX    TMP DP  RH WIND       PRES   REMARKS
SUPERIOR ARPT  CLOUDY    60  55  82 W7        30.07R
6HR MIN TEMP:  59; 6HR MAX TEMP:  66;

ASHLAND        FAIR      56  53  90 SW7       30.06R
6HR MIN TEMP:  54; 6HR MAX TEMP:  67;

HAYWARD        FAIR      58  54  86 SW5       30.10R
6HR MIN TEMP:  57; 6HR MAX TEMP:  65;

SIREN          FAIR      58  55  91 W5        30.12R
6HR MIN TEMP:  58; 6HR MAX TEMP:  66;

CUMBERLAND     MOCLDY    55  52  88 W6        30.12R
RICE LAKE      FAIR      52  50  93 CALM      30.14R
6HR MIN TEMP:  52; 6HR MAX TEMP:  67;

CHETEK         NOT AVBL
LADYSMITH      FAIR      57  54  87 W6        30.12S
6HR MIN TEMP:  56; 6HR MAX TEMP:  68;

EAU CLAIRE     FAIR      57  55  93 SW3       30.11R
6HR MIN TEMP:  56; 6HR MAX TEMP:  71;

MENOMONIE      FAIR      59  55  87 CALM      30.12R
6HR MIN TEMP:  58; 6HR MAX TEMP:  71;

NEW RICHMOND   FAIR      55  54  96 CALM      30.14R
6HR MIN TEMP:  55; 6HR MAX TEMP:  67;

OSCEOLA        FAIR      55  55 100 CALM      30.16R
6HR MIN TEMP:  55; 6HR MAX TEMP:  68;

$$

WIZ003>005-009-010-017-018-260700-
NORTH CENTRAL WISCONSIN

CITY           SKY/WX    TMP DP  RH WIND       PRES   REMARKS
MANITOWISH WTR NOT AVBL
ARBOR VITAE    FAIR      57  54  89 W3        30.09R
6HR MIN TEMP:  57; 6HR MAX TEMP:  68;

WOODRUFF       FAIR      57  54  89 W3        30.09R
6HR MIN TEMP:  57; 6HR MAX TEMP:  68;

RHINELANDER    FAIR      53  52  96 W6        30.09R
6HR MIN TEMP:  53; 6HR MAX TEMP:  69;

EAGLE RIVER    FAIR      52  51  97 CALM      30.07R
6HR MIN TEMP:  52; 6HR MAX TEMP:  68;

LAND O LAKES   FAIR      56  52  86 W5        30.07S
6HR MIN TEMP:  56; 6HR MAX TEMP:  68; 6HR PCP:  0.01;

PHILLIPS       FAIR      55  53  94 CALM      30.09R
6HR MIN TEMP:  55; 6HR MAX TEMP:  66;

TOMAHAWK       FAIR      50  49  95 CALM      30.10R
6HR MIN TEMP:  50; 6HR MAX TEMP:  68;

MEDFORD        FAIR      55  55 100 W5        30.10S
6HR MIN TEMP:  54; 6HR MAX TEMP:  67;

MERRILL        FAIR      56  55  95 W3        30.10S
6HR MIN TEMP:  56; 6HR MAX TEMP:  71; 6HR PCP:  0.01;

$$

WIZ029-030-035-036-043>047-260700-
CENTRAL WISCONSIN

CITY           SKY/WX    TMP DP  RH WIND       PRES   REMARKS
WAUSAU         FAIR      59  55  87 NW7       30.08R
6HR MIN TEMP:  59; 6HR MAX TEMP:  72;

MOSINEE        FAIR      55  55 100 W6        30.11S
MARSHFIELD     FAIR      57  53  86 W5        30.10S
6HR MIN TEMP:  57; 6HR MAX TEMP:  71;

STEVENS POINT  FAIR      59  55  85 CALM      30.11R
6HR MIN TEMP:  59; 6HR MAX TEMP:  72;

WAUPACA        FAIR      65  57  75 NW6       30.09R
6HR MIN TEMP:  65; 6HR MAX TEMP:  76;

WAUTOMA        FAIR      61  56  83 SW3       30.10R
6HR MIN TEMP:  60; 6HR MAX TEMP:  75;

WISC RAPIDS    FAIR      59  56  89 NW5       30.12R
6HR MIN TEMP:  59; 6HR MAX TEMP:  74;

CAMP DOUGLAS   FAIR      55  54  95 W7        30.11R
6HR MIN TEMP:  55; 6HR MAX TEMP:  73;

$$

WIZ011>013-019>022-031-037>040-048>050-260700-
NORTHEAST WISCONSIN

CITY           SKY/WX    TMP DP  RH WIND       PRES   REMARKS
ANTIGO         FAIR      55  53  95 W3        30.10R
6HR MIN TEMP:  54; 6HR MAX TEMP:  69;

SHAWANO        FAIR      63  56  79 W5        30.08R
6HR MIN TEMP:  62; 6HR MAX TEMP:  76;

OCONTO         NOT AVBL
STURGEON BAY   FAIR      66  58  75 W8        30.06R
6HR MIN TEMP:  66; 6HR MAX TEMP:  75;

GREEN BAY      FAIR      60  59  96 W8        30.07R
6HR MIN TEMP:  60; 6HR MAX TEMP:  75;

MANITOWOC      FAIR      65  58  78 NW3       30.07R
6HR MIN TEMP:  65; 6HR MAX TEMP:  75;

APPLETON       FAIR      61  54  77 NW10      30.07R
CLINTONVILLE   FAIR      61  54  77 W3        30.08R
OSHKOSH        FAIR      63  58  83 W3        30.08R
6HR MIN TEMP:  63; 6HR MAX TEMP:  75;

$$

WIZ032>034-041-042-053>061-260700-
SOUTHWEST WISCONSIN

CITY           SKY/WX    TMP DP  RH WIND       PRES   REMARKS
LA CROSSE      FAIR      64  60  87 CALM      30.12R
6HR MIN TEMP:  64; 6HR MAX TEMP:  77;

SPARTA         FAIR      55  55  97 CALM      30.13R
6HR MIN TEMP:  55; 6HR MAX TEMP:  74;

VIROQUA        FAIR      59  57  92 NW3       30.13S
6HR MIN TEMP:  59; 6HR MAX TEMP:  72;

BOSCOBEL       FOG       60  59  96 CALM      30.12S VSB 1/2
6HR MIN TEMP:  59; 6HR MAX TEMP:  76;

PRAIRIE DU CHI FAIR      61  59  92 CALM      30.12R
6HR MIN TEMP:  61; 6HR MAX TEMP:  75;

PLATTEVILLE    FAIR      62  62 100 W3        30.13S
6HR MIN TEMP:  62; 6HR MAX TEMP:  73;

$$

WIZ056-057-062-063-064-067-068-260700-
SOUTH CENTRAL WISCONSIN

CITY           SKY/WX    TMP DP  RH WIND       PRES   REMARKS
REEDSBURG      NOT AVBL
BARABOO/DELLS  FAIR      61  58  90 CALM      30.11R
6HR MIN TEMP:  60; 6HR MAX TEMP:  72;

LONE ROCK      FAIR      58  57  97 CALM      30.12R FOG
6HR MIN TEMP:  58; 6HR MAX TEMP:  75;

MINERAL POINT  FAIR      63  61  94 NW3       30.13R
MADISON        FAIR      65  61  87 W5        30.10R
6HR MIN TEMP:  65; 6HR MAX TEMP:  74; 6HR PCP: TRACE;

MIDDLETON      FAIR      62  62  99 W5        30.12R
6HR MIN TEMP:  62; 6HR MAX TEMP:  74;

WATERTOWN      FAIR      64  64 100 W3        30.10R
6HR MIN TEMP:  63; 6HR MAX TEMP:  74;

MONROE         FAIR      64  61  88 W7        30.12R
JANESVILLE     FAIR      66  64  94 CALM      30.11R
$$

WIZ051-052-058>065-066-070>072-260700-
SOUTHEAST WISCONSIN

CITY           SKY/WX    TMP DP  RH WIND       PRES   REMARKS
MILWAUKEE      FAIR      72  61  68 W7        30.09R
6HR MIN TEMP:  72; 6HR MAX TEMP:  80;

WAUKESHA       FAIR      64  59  82 W7        30.11R
MILWAUKEE/TIMM FAIR      66  59  77 W6        30.10R
RACINE         FAIR      66  61  84 CALM      30.11R
6HR MIN TEMP:  65; 6HR MAX TEMP:  76;

BURLINGTON     FAIR      61  60  96 CALM      30.11R
6HR MIN TEMP:  61; 6HR MAX TEMP:  73;

KENOSHA        FAIR      62  60  93 W5        30.10R
6HR MIN TEMP:  62; 6HR MAX TEMP:  73;

FOND DU LAC    FAIR      63  59  87 CALM      30.09R
6HR MIN TEMP:  62; 6HR MAX TEMP:  74;

SHEBOYGAN      FAIR      65  60  84 W5        30.07R
6HR MIN TEMP:  65; 6HR MAX TEMP:  74;

WEST BEND      FAIR      63  59  88 W6        30.09R
JUNEAU         FAIR      61  60  96 SW5       30.12R
6HR MIN TEMP:  61; 6HR MAX TEMP:  73;

$$

LSZ147-162-260700-
LAKE SUPERIOR

STATION/POSITION TIME  TEMP    WIND        PRES    WAVE
                       AIR SEA DIR/SP/G            HT/PER
                 (UTC) (F)     (DEG/KT/KT) (MB)    (FT/S)
W MID LAKE BUOY  0550   65 67  280/ 16/ 17 1015.0R   3/ 5
DEVILS ISLAND    0600   63     280/ 13/ 16 1017.0R
PORT WING        0500   64     260/ 12/ 16 1017.3R
SAXON HARBOR     0500   60     180/  6/  9 1016.9R
$$

LMZ867-665-643>646-260700-
LAKE MICHIGAN

STATION/POSITION TIME  TEMP    WIND        PRES    WAVE
                       AIR SEA DIR/SP/G            HT/PER
                 (UTC) (F)     (DEG/KT/KT) (MB)    (FT/S)
CHAMBERS ISLAND  0500   67     240/  4/  7 1016.6R
N MID LAKE BUOY  0550   69 70  320/ 10/ 12 1015.8R   2/ 4
NORTHPORT PIER   C1F1C2F2C3F3C4F4C5F5C6F6C7F7C8M1C9M2Ca!


USA.gov is the U.S. government's official web portal to all federal, state and local government web resources and services.